Wetterdaten: Dienstag, 24.11.2015
Datum Zeit Temp. A. Feuchte A. Luftdruck Regen Wind Richtung Richtung Sonnenschein ET UV Solar Taupunkt Windchill Windben Empfang
24.11.2015 00:00 -0,1 C 91 % 1026,4 hPa 0,0 l/m 0,7 km/h (0 Bft) S-SW 209 0 min 0,000 mm 0,0 UV-I 0 W/m -1,4 C -0,1 C 3,2 km/h (1 Bft) 98,21 %
24.11.2015 00:05 -0,2 C 91 % 1026,4 hPa 0,0 l/m 1,7 km/h (1 Bft) S-SW 209 0 min 0,000 mm 0,0 UV-I 0 W/m -1,5 C -0,2 C 3,2 km/h (1 Bft) 98,23 %
24.11.2015 00:10 -0,2 C 92 % 1026,4 hPa 0,0 l/m 1,2 km/h (1 Bft) S-SW 209 0 min 0,000 mm 0,0 UV-I 0 W/m -1,3 C -0,2 C 3,2 km/h (1 Bft) 100,00 %
24.11.2015 00:15 -0,2 C 91 % 1026,6 hPa 0,0 l/m 0,3 km/h (0 Bft) S-SW 209 0 min 0,000 mm 0,0 UV-I 0 W/m -1,5 C -0,2 C 1,6 km/h (1 Bft) 100,00 %
24.11.2015 00:20 -0,2 C 92 % 1026,4 hPa 0,0 l/m 0,3 km/h (0 Bft) S-SW 209 0 min 0,000 mm 0,0 UV-I 0 W/m -1,3 C -0,2 C 1,6 km/h (1 Bft) 99,17 %
24.11.2015 00:25 -0,1 C 91 % 1026,4 hPa 0,0 l/m 0,2 km/h (0 Bft) S-SW 209 0 min 0,000 mm 0,0 UV-I 0 W/m -1,4 C -0,1 C 1,6 km/h (1 Bft) 98,15 %
24.11.2015 00:30 -0,1 C 91 % 1026,4 hPa 0,0 l/m 1,0 km/h (0 Bft) S-SW 209 0 min 0,000 mm 0,0 UV-I 0 W/m -1,4 C -0,1 C 3,2 km/h (1 Bft) 100,00 %
24.11.2015 00:35 0,0 C 91 % 1026,4 hPa 0,0 l/m 0,9 km/h (0 Bft) S-SW 209 0 min 0,000 mm 0,0 UV-I 0 W/m -1,3 C 0,0 C 3,2 km/h (1 Bft) 100,00 %
24.11.2015 00:40 0,1 C 90 % 1026,4 hPa 0,0 l/m 0,2 km/h (0 Bft) S-SW 209 0 min 0,000 mm 0,0 UV-I 0 W/m -1,3 C 0,1 C 1,6 km/h (1 Bft) 99,11 %
24.11.2015 00:45 0,0 C 91 % 1026,4 hPa 0,0 l/m 1,2 km/h (1 Bft) S-SW 209 0 min 0,000 mm 0,0 UV-I 0 W/m -1,3 C 0,0 C 3,2 km/h (1 Bft) 100,00 %
24.11.2015 00:50 -0,1 C 91 % 1026,3 hPa 0,0 l/m 1,4 km/h (1 Bft) S-SW 209 0 min 0,000 mm 0,0 UV-I 0 W/m -1,4 C -0,1 C 3,2 km/h (1 Bft) 99,12 %
24.11.2015 00:55 -0,1 C 92 % 1026,3 hPa 0,0 l/m 2,5 km/h (1 Bft) S-SO 155 0 min 0,000 mm 0,0 UV-I 0 W/m -1,2 C -0,1 C 3,2 km/h (1 Bft) 98,21 %
24.11.2015 01:00 -0,2 C 91 % 1026,2 hPa 0,0 l/m 2,3 km/h (1 Bft) SO 139 0 min 0,000 mm 0,0 UV-I 0 W/m -1,5 C -0,2 C 4,8 km/h (1 Bft) 98,31 %
24.11.2015 01:05 -0,1 C 90 % 1026,1 hPa 0,0 l/m 1,3 km/h (1 Bft) SO 139 0 min 0,000 mm 0,0 UV-I 0 W/m -1,5 C -0,1 C 3,2 km/h (1 Bft) 97,50 %
24.11.2015 01:10 -0,3 C 90 % 1026,1 hPa 0,0 l/m 2,0 km/h (1 Bft) SO 139 0 min 0,000 mm 0,0 UV-I 0 W/m -1,7 C -0,3 C 3,2 km/h (1 Bft) 96,69 %
24.11.2015 01:15 -0,5 C 90 % 1026,1 hPa 0,0 l/m 1,9 km/h (1 Bft) SO 139 0 min 0,000 mm 0,0 UV-I 0 W/m -1,9 C -0,5 C 4,8 km/h (1 Bft) 98,29 %
24.11.2015 01:20 -0,8 C 91 % 1026,1 hPa 0,0 l/m 2,7 km/h (1 Bft) SO 139 0 min 0,000 mm 0,0 UV-I 0 W/m -2,1 C -0,8 C 4,8 km/h (1 Bft) 97,32 %
24.11.2015 01:25 -0,7 C 91 % 1026,2 hPa 0,0 l/m 1,3 km/h (1 Bft) SO 139 0 min 0,000 mm 0,0 UV-I 0 W/m -2,0 C -0,7 C 3,2 km/h (1 Bft) 97,58 %
24.11.2015 01:30 -0,9 C 91 % 1026,3 hPa 0,0 l/m 3,1 km/h (1 Bft) S 189 0 min 0,000 mm 0,0 UV-I 0 W/m -2,2 C -0,9 C 6,4 km/h (2 Bft) 97,30 %
24.11.2015 01:35 -1,1 C 92 % 1026,2 hPa 0,0 l/m 2,8 km/h (1 Bft) S 187 0 min 0,000 mm 0,0 UV-I 0 W/m -2,2 C -1,1 C 4,8 km/h (1 Bft) 98,31 %
24.11.2015 01:40 -1,0 C 93 % 1026,3 hPa 0,0 l/m 1,1 km/h (1 Bft) S 186 0 min 0,000 mm 0,0 UV-I 0 W/m -2,0 C -1,0 C 3,2 km/h (1 Bft) 98,33 %
24.11.2015 01:45 -1,0 C 93 % 1026,3 hPa 0,0 l/m 1,2 km/h (1 Bft) S 186 0 min 0,000 mm 0,0 UV-I 0 W/m -2,0 C -1,0 C 3,2 km/h (1 Bft) 95,76 %
24.11.2015 01:50 -1,2 C 92 % 1026,3 hPa 0,0 l/m 0,0 km/h (0 Bft) S 186 0 min 0,000 mm 0,0 UV-I 0 W/m -2,3 C -1,2 C 1,6 km/h (1 Bft) 98,17 %
24.11.2015 01:55 -1,3 C 93 % 1026,4 hPa 0,0 l/m 0,4 km/h (0 Bft) S 186 0 min 0,000 mm 0,0 UV-I 0 W/m -2,3 C -1,3 C 3,2 km/h (1 Bft) 100,00 %
24.11.2015 02:00 -1,4 C 94 % 1026,3 hPa 0,0 l/m 1,1 km/h (1 Bft) S 186 0 min 0,000 mm 0,0 UV-I 0 W/m -2,2 C -1,4 C 3,2 km/h (1 Bft) 98,21 %
24.11.2015 02:05 -1,3 C 94 % 1026,3 hPa 0,0 l/m 1,3 km/h (1 Bft) S 186 0 min 0,000 mm 0,0 UV-I 0 W/m -2,1 C -1,3 C 3,2 km/h (1 Bft) 100,00 %
24.11.2015 02:10 -1,5 C 94 % 1026,3 hPa 0,0 l/m 0,7 km/h (0 Bft) S 186 0 min 0,000 mm 0,0 UV-I 0 W/m -2,3 C -1,5 C 3,2 km/h (1 Bft) 99,17 %
24.11.2015 02:15 -1,5 C 94 % 1026,3 hPa 0,0 l/m 0,8 km/h (0 Bft) S 186 0 min 0,000 mm 0,0 UV-I 0 W/m -2,3 C -1,5 C 3,2 km/h (1 Bft) 99,15 %
24.11.2015 02:20 -1,7 C 94 % 1026,3 hPa 0,0 l/m 0,1 km/h (0 Bft) S 186 0 min 0,000 mm 0,0 UV-I 0 W/m -2,5 C -1,7 C 1,6 km/h (1 Bft) 100,00 %
24.11.2015 02:25 -1,8 C 94 % 1026,3 hPa 0,0 l/m 0,1 km/h (0 Bft) S 186 0 min 0,000 mm 0,0 UV-I 0 W/m -2,6 C -1,8 C 1,6 km/h (1 Bft) 100,00 %
24.11.2015 02:30 -1,8 C 94 % 1026,2 hPa 0,0 l/m 0,0 km/h (0 Bft) S 186 0 min 0,000 mm 0,0 UV-I 0 W/m -2,6 C -1,8 C 1,6 km/h (1 Bft) 99,17 %
24.11.2015 02:35 -1,8 C 94 % 1026,2 hPa 0,0 l/m 0,5 km/h (0 Bft) S 186 0 min 0,000 mm 0,0 UV-I 0 W/m -2,6 C -1,8 C 3,2 km/h (1 Bft) 99,19 %
24.11.2015 02:40 -1,8 C 94 % 1026,2 hPa 0,0 l/m 0,4 km/h (0 Bft) S 186 0 min 0,000 mm 0,0 UV-I 0 W/m -2,6 C -1,8 C 3,2 km/h (1 Bft) 97,25 %
24.11.2015 02:45 -1,8 C 94 % 1026,1 hPa 0,0 l/m 0,1 km/h (0 Bft) S 186 0 min 0,000 mm 0,0 UV-I 0 W/m -2,6 C -1,8 C 1,6 km/h (1 Bft) 99,17 %
24.11.2015 02:50 -1,9 C 94 % 1026,0 hPa 0,0 l/m 0,1 km/h (0 Bft) S 186 0 min 0,000 mm 0,0 UV-I 0 W/m -2,7 C -1,9 C 1,6 km/h (1 Bft) 99,10 %
24.11.2015 02:55 -1,9 C 94 % 1025,9 hPa 0,0 l/m 0,0 km/h (0 Bft) S 186 0 min 0,000 mm 0,0 UV-I 0 W/m -2,7 C -1,9 C 1,6 km/h (1 Bft) 99,15 %
24.11.2015 03:00 -2,0 C 94 % 1025,9 hPa 0,0 l/m 0,2 km/h (0 Bft) S 186 0 min 0,000 mm 0,0 UV-I 0 W/m -2,8 C -2,0 C 1,6 km/h (1 Bft) 99,15 %
24.11.2015 03:05 -2,1 C 94 % 1025,8 hPa 0,0 l/m 1,9 km/h (1 Bft) S 186 0 min 0,000 mm 0,0 UV-I 0 W/m -2,9 C -2,1 C 3,2 km/h (1 Bft) 97,44 %
24.11.2015 03:10 -2,0 C 95 % 1025,8 hPa 0,0 l/m 0,6 km/h (0 Bft) S 186 0 min 0,000 mm 0,0 UV-I 0 W/m -2,7 C -2,0 C 3,2 km/h (1 Bft) 96,77 %
24.11.2015 03:15 -2,1 C 94 % 1025,9 hPa 0,0 l/m 1,2 km/h (1 Bft) S 186 0 min 0,000 mm 0,0 UV-I 0 W/m -2,9 C -2,1 C 3,2 km/h (1 Bft) 97,44 %
24.11.2015 03:20 -2,1 C 94 % 1025,8 hPa 0,0 l/m 1,1 km/h (1 Bft) S 186 0 min 0,000 mm 0,0 UV-I 0 W/m -2,9 C -2,1 C 3,2 km/h (1 Bft) 96,52 %
24.11.2015 03:25 -2,2 C 94 % 1025,8 hPa 0,0 l/m 0,4 km/h (0 Bft) S 186 0 min 0,000 mm 0,0 UV-I 0 W/m -3,0 C -2,2 C 1,6 km/h (1 Bft) 96,61 %
24.11.2015 03:30 -2,3 C 95 % 1025,8 hPa 0,0 l/m 0,0 km/h (0 Bft) S 186 0 min 0,000 mm 0,0 UV-I 0 W/m -3,0 C -2,3 C 0,0 km/h (0 Bft) 97,50 %
24.11.2015 03:35 -2,1 C 95 % 1025,8 hPa 0,0 l/m 0,0 km/h (0 Bft) S 186 0 min 0,000 mm 0,0 UV-I 0 W/m -2,8 C -2,1 C 1,6 km/h (1 Bft) 96,52 %
24.11.2015 03:40 -1,9 C 95 % 1025,8 hPa 0,0 l/m 0,0 km/h (0 Bft) S 186 0 min 0,000 mm 0,0 UV-I 0 W/m -2,6 C -1,9 C 0,0 km/h (0 Bft) 98,26 %
24.11.2015 03:45 -2,2 C 94 % 1025,8 hPa 0,0 l/m 0,2 km/h (0 Bft) S 186 0 min 0,000 mm 0,0 UV-I 0 W/m -3,0 C -2,2 C 1,6 km/h (1 Bft) 98,33 %
24.11.2015 03:50 -2,4 C 94 % 1025,8 hPa 0,0 l/m 2,8 km/h (1 Bft) S 186 0 min 0,000 mm 0,0 UV-I 0 W/m -3,2 C -2,4 C 3,2 km/h (1 Bft) 99,15 %
24.11.2015 03:55 -2,4 C 95 % 1025,8 hPa 0,0 l/m 2,6 km/h (1 Bft) S 186 0 min 0,000 mm 0,0 UV-I 0 W/m -3,1 C -2,4 C 3,2 km/h (1 Bft) 100,00 %
24.11.2015 04:00 -2,5 C 95 % 1025,8 hPa 0,0 l/m 2,5 km/h (1 Bft) S 186 0 min 0,000 mm 0,0 UV-I 0 W/m -3,2 C -2,5 C 3,2 km/h (1 Bft) 100,00 %
24.11.2015 04:05 -2,5 C 95 % 1025,8 hPa 0,0 l/m 2,7 km/h (1 Bft) S 186 0 min 0,000 mm 0,0 UV-I 0 W/m -3,2 C -2,5 C 3,2 km/h (1 Bft) 97,98 %
24.11.2015 04:10 -2,4 C 96 % 1025,8 hPa 0,0 l/m 1,3 km/h (1 Bft) S 186 0 min 0,000 mm 0,0 UV-I 0 W/m -2,9 C -2,4 C 3,2 km/h (1 Bft) 98,37 %
24.11.2015 04:15 -2,4 C 95 % 1025,8 hPa 0,0 l/m 1,4 km/h (1 Bft) S 186 0 min 0,000 mm 0,0 UV-I 0 W/m -3,1 C -2,4 C 3,2 km/h (1 Bft) 97,25 %
24.11.2015 04:20 -2,5 C 95 % 1025,9 hPa 0,0 l/m 0,3 km/h (0 Bft) S 186 0 min 0,000 mm 0,0 UV-I 0 W/m -3,2 C -2,5 C 1,6 km/h (1 Bft) 99,17 %
24.11.2015 04:25 -2,6 C 95 % 1025,9 hPa 0,0 l/m 0,0 km/h (0 Bft) S 186 0 min 0,000 mm 0,0 UV-I 0 W/m -3,3 C -2,6 C 1,6 km/h (1 Bft) 98,29 %
24.11.2015 04:30 -2,7 C 95 % 1025,8 hPa 0,0 l/m 0,0 km/h (0 Bft) S 186 0 min 0,000 mm 0,0 UV-I 0 W/m -3,4 C -2,7 C 1,6 km/h (1 Bft) 99,17 %
24.11.2015 04:35 -2,6 C 95 % 1025,8 hPa 0,0 l/m 0,1 km/h (0 Bft) S 186 0 min 0,000 mm 0,0 UV-I 0 W/m -3,3 C -2,6 C 1,6 km/h (1 Bft) 99,10 %
24.11.2015 04:40 -2,4 C 95 % 1025,9 hPa 0,0 l/m 0,2 km/h (0 Bft) S 186 0 min 0,000 mm 0,0 UV-I 0 W/m -3,1 C -2,4 C 1,6 km/h (1 Bft) 99,19 %
24.11.2015 04:45 -2,3 C 95 % 1025,9 hPa 0,0 l/m 0,5 km/h (0 Bft) S 186 0 min 0,000 mm 0,0 UV-I 0 W/m -3,0 C -2,3 C 3,2 km/h (1 Bft) 97,39 %
24.11.2015 04:50 -2,3 C 94 % 1025,9 hPa 0,0 l/m 1,5 km/h (1 Bft) S 186 0 min 0,000 mm 0,0 UV-I 0 W/m -3,1 C -2,3 C 3,2 km/h (1 Bft) 98,20 %
24.11.2015 04:55 -2,3 C 94 % 1025,9 hPa 0,0 l/m 0,1 km/h (0 Bft) S 186 0 min 0,000 mm 0,0 UV-I 0 W/m -3,1 C -2,3 C 1,6 km/h (1 Bft) 99,19 %
24.11.2015 05:00 -2,7 C 94 % 1025,9 hPa 0,0 l/m 1,3 km/h (1 Bft) N-NO 30 0 min 0,000 mm 0,0 UV-I 0 W/m -3,5 C -2,7 C 3,2 km/h (1 Bft) 100,00 %
24.11.2015 05:05 -2,8 C 95 % 1025,9 hPa 0,0 l/m 1,2 km/h (1 Bft) N-NO 30 0 min 0,000 mm 0,0 UV-I 0 W/m -3,5 C -2,8 C 3,2 km/h (1 Bft) 98,20 %
24.11.2015 05:10 -2,8 C 95 % 1025,9 hPa 0,0 l/m 0,1 km/h (0 Bft) N-NO 30 0 min 0,000 mm 0,0 UV-I 0 W/m -3,5 C -2,8 C 1,6 km/h (1 Bft) 99,15 %
24.11.2015 05:15 -2,9 C 95 % 1026,0 hPa 0,0 l/m 0,6 km/h (0 Bft) N-NO 30 0 min 0,000 mm 0,0 UV-I 0 W/m -3,6 C -2,9 C 3,2 km/h (1 Bft) 97,50 %
24.11.2015 05:20 -2,8 C 95 % 1026,0 hPa 0,0 l/m 0,9 km/h (0 Bft) N-NO 30 0 min 0,000 mm 0,0 UV-I 0 W/m -3,5 C -2,8 C 3,2 km/h (1 Bft) 95,97 %
24.11.2015 05:25 -2,8 C 95 % 1026,0 hPa 0,0 l/m 1,1 km/h (1 Bft) NO 54 0 min 0,000 mm 0,0 UV-I 0 W/m -3,5 C -2,8 C 3,2 km/h (1 Bft) 97,25 %
24.11.2015 05:30 -2,9 C 95 % 1026,0 hPa 0,0 l/m 2,4 km/h (1 Bft) O-NO 63 0 min 0,000 mm 0,0 UV-I 0 W/m -3,6 C -2,9 C 3,2 km/h (1 Bft) 98,29 %
24.11.2015 05:35 -2,8 C 95 % 1026,0 hPa 0,0 l/m 1,2 km/h (1 Bft) O-NO 63 0 min 0,000 mm 0,0 UV-I 0 W/m -3,5 C -2,8 C 3,2 km/h (1 Bft) 97,58 %
24.11.2015 05:40 -2,8 C 95 % 1026,0 hPa 0,0 l/m 1,5 km/h (1 Bft) O-NO 61 0 min 0,000 mm 0,0 UV-I 0 W/m -3,5 C -2,8 C 3,2 km/h (1 Bft) 95,61 %
24.11.2015 05:45 -2,9 C 95 % 1025,9 hPa 0,0 l/m 1,9 km/h (1 Bft) O-NO 66 0 min 0,000 mm 0,0 UV-I 0 W/m -3,6 C -2,9 C 3,2 km/h (1 Bft) 98,26 %
24.11.2015 05:50 -2,9 C 95 % 1025,9 hPa 0,0 l/m 1,4 km/h (1 Bft) O-NO 66 0 min 0,000 mm 0,0 UV-I 0 W/m -3,6 C -2,9 C 3,2 km/h (1 Bft) 97,58 %
24.11.2015 05:55 -3,0 C 95 % 1025,9 hPa 0,0 l/m 1,4 km/h (1 Bft) O 96 0 min 0,000 mm 0,0 UV-I 0 W/m -3,7 C -3,0 C 3,2 km/h (1 Bft) 99,10 %
24.11.2015 06:00 -2,9 C 95 % 1025,9 hPa 0,0 l/m 3,0 km/h (1 Bft) SO 137 0 min 0,000 mm 0,0 UV-I 0 W/m -3,6 C -2,9 C 4,8 km/h (1 Bft) 99,13 %
24.11.2015 06:05 -2,9 C 95 % 1025,9 hPa 0,0 l/m 1,0 km/h (0 Bft) SO 135 0 min 0,000 mm 0,0 UV-I 0 W/m -3,6 C -2,9 C 3,2 km/h (1 Bft) 96,69 %
24.11.2015 06:10 -3,2 C 94 % 1025,9 hPa 0,0 l/m 0,4 km/h (0 Bft) SO 135 0 min 0,000 mm 0,0 UV-I 0 W/m -4,0 C -3,2 C 3,2 km/h (1 Bft) 100,00 %
24.11.2015 06:15 -3,3 C 95 % 1025,9 hPa 0,0 l/m 0,0 km/h (0 Bft) SO 135 0 min 0,000 mm 0,0 UV-I 0 W/m -4,0 C -3,3 C 0,0 km/h (0 Bft) 100,00 %
24.11.2015 06:20 -3,3 C 95 % 1026,0 hPa 0,0 l/m 0,0 km/h (0 Bft) SO 135 0 min 0,000 mm 0,0 UV-I 0 W/m -4,0 C -3,3 C 0,0 km/h (0 Bft) 99,08 %
24.11.2015 06:25 -3,3 C 95 % 1026,0 hPa 0,0 l/m 0,0 km/h (0 Bft) SO 135 0 min 0,000 mm 0,0 UV-I 0 W/m -4,0 C -3,3 C 0,0 km/h (0 Bft) 98,37 %
24.11.2015 06:30 -3,3 C 95 % 1025,9 hPa 0,0 l/m 1,0 km/h (0 Bft) SO 135 0 min 0,000 mm 0,0 UV-I 0 W/m -4,0 C -3,3 C 3,2 km/h (1 Bft) 99,13 %
24.11.2015 06:35 -3,3 C 95 % 1025,9 hPa 0,0 l/m 2,9 km/h (1 Bft) SO 135 0 min 0,000 mm 0,0 UV-I 0 W/m -4,0 C -3,3 C 4,8 km/h (1 Bft) 99,12 %
24.11.2015 06:40 -3,4 C 95 % 1025,9 hPa 0,0 l/m 3,6 km/h (1 Bft) SO 135 0 min 0,000 mm 0,0 UV-I 0 W/m -4,1 C -3,4 C 4,8 km/h (1 Bft) 99,19 %
24.11.2015 06:45 -3,3 C 95 % 1025,9 hPa 0,0 l/m 2,4 km/h (1 Bft) SO 135 0 min 0,000 mm 0,0 UV-I 0 W/m -4,0 C -3,3 C 3,2 km/h (1 Bft) 98,11 %
24.11.2015 06:50 -3,2 C 95 % 1026,0 hPa 0,0 l/m 1,1 km/h (1 Bft) SO 135 0 min 0,000 mm 0,0 UV-I 0 W/m -3,9 C -3,2 C 3,2 km/h (1 Bft) 100,00 %
24.11.2015 06:55 -3,3 C 95 % 1026,0 hPa 0,0 l/m 2,6 km/h (1 Bft) SO 135 0 min 0,000 mm 0,0 UV-I 0 W/m -4,0 C -3,3 C 3,2 km/h (1 Bft) 99,06 %
24.11.2015 07:00 -3,3 C 95 % 1026,0 hPa 0,0 l/m 2,8 km/h (1 Bft) SO 135 0 min 0,000 mm 0,0 UV-I 0 W/m -4,0 C -3,3 C 3,2 km/h (1 Bft) 99,21 %
24.11.2015 07:05 -3,4 C 95 % 1026,1 hPa 0,0 l/m 1,0 km/h (0 Bft) SO 135 0 min 0,000 mm 0,0 UV-I 0 W/m -4,1 C -3,4 C 3,2 km/h (1 Bft) 98,35 %
24.11.2015 07:10 -3,6 C 95 % 1026,1 hPa 0,0 l/m 0,1 km/h (0 Bft) SO 135 0 min 0,000 mm 0,0 UV-I 0 W/m -4,3 C -3,6 C 1,6 km/h (1 Bft) 98,21 %
24.11.2015 07:15 -3,6 C 95 % 1026,0 hPa 0,0 l/m 0,1 km/h (0 Bft) SO 135 0 min 0,000 mm 0,0 UV-I 0 W/m -4,3 C -3,6 C 1,6 km/h (1 Bft) 97,00 %
24.11.2015 07:20 -3,5 C 95 % 1026,0 hPa 0,0 l/m 1,0 km/h (0 Bft) SO 135 0 min 0,000 mm 0,0 UV-I 0 W/m -4,2 C -3,5 C 1,6 km/h (1 Bft) 97,78 %
24.11.2015 07:25 -3,4 C 95 % 1026,1 hPa 0,0 l/m 1,6 km/h (1 Bft) SO 135 0 min 0,000 mm 0,0 UV-I 4 W/m -4,1 C -3,4 C 3,2 km/h (1 Bft) 97,32 %
24.11.2015 07:30 -3,5 C 95 % 1026,1 hPa 0,0 l/m 0,4 km/h (0 Bft) SO 135 0 min 0,000 mm 0,0 UV-I 6 W/m -4,2 C -3,5 C 1,6 km/h (1 Bft) 95,93 %
24.11.2015 07:35 -3,4 C 95 % 1026,1 hPa 0,0 l/m 0,1 km/h (0 Bft) SO 135 5 min 0,000 mm 0,0 UV-I 10 W/m -4,1 C -3,4 C 1,6 km/h (1 Bft) 97,52 %
24.11.2015 07:40 -3,4 C 95 % 1026,1 hPa 0,0 l/m 0,1 km/h (0 Bft) SO 135 0 min 0,000 mm 0,0 UV-I 11 W/m -4,1 C -3,4 C 1,6 km/h (1 Bft) 96,49 %
24.11.2015 07:45 -3,4 C 95 % 1026,2 hPa 0,0 l/m 0,8 km/h (0 Bft) SO 135 0 min 0,000 mm 0,0 UV-I 13 W/m -4,1 C -3,4 C 1,6 km/h (1 Bft) 98,31 %
24.11.2015 07:50 -3,5 C 95 % 1026,3 hPa 0,0 l/m 0,4 km/h (0 Bft) SO 135 0 min 0,000 mm 0,0 UV-I 15 W/m -4,2 C -3,5 C 1,6 km/h (1 Bft) 99,08 %
24.11.2015 07:55 -3,6 C 95 % 1026,3 hPa 0,0 l/m 0,9 km/h (0 Bft) SO 135 0 min 0,000 mm 0,0 UV-I 18 W/m -4,3 C -3,6 C 3,2 km/h (1 Bft) 99,19 %
24.11.2015 08:00 -3,6 C 95 % 1026,3 hPa 0,0 l/m 1,6 km/h (1 Bft) SO 135 0 min 0,000 mm 0,0 UV-I 23 W/m -4,3 C -3,6 C 3,2 km/h (1 Bft) 99,15 %
24.11.2015 08:05 -3,4 C 95 % 1026,3 hPa 0,0 l/m 1,0 km/h (0 Bft) SO 135 0 min 0,000 mm 0,0 UV-I 28 W/m -4,1 C -3,4 C 3,2 km/h (1 Bft) 99,11 %
24.11.2015 08:10 -3,5 C 95 % 1026,2 hPa 0,0 l/m 0,0 km/h (0 Bft) SO 135 0 min 0,000 mm 0,0 UV-I 36 W/m -4,2 C -3,5 C 1,6 km/h (1 Bft) 99,19 %
24.11.2015 08:15 -3,3 C 95 % 1026,2 hPa 0,0 l/m 0,0 km/h (0 Bft) SO 135 0 min 0,000 mm 0,0 UV-I 57 W/m -4,0 C -3,3 C 0,0 km/h (0 Bft) 100,00 %
24.11.2015 08:20 -3,2 C 95 % 1026,1 hPa 0,0 l/m 0,0 km/h (0 Bft) SO 135 5 min 0,000 mm 0,0 UV-I 77 W/m -3,9 C -3,2 C 1,6 km/h (1 Bft) 99,15 %
24.11.2015 08:25 -3,2 C 95 % 1026,2 hPa 0,0 l/m 0,0 km/h (0 Bft) SO 135 0 min 0,000 mm 0,0 UV-I 46 W/m -3,9 C -3,2 C 0,0 km/h (0 Bft) 99,08 %
24.11.2015 08:30 -2,8 C 95 % 1026,2 hPa 0,0 l/m 0,1 km/h (0 Bft) SO 135 5 min 0,000 mm 0,0 UV-I 94 W/m -3,5 C -2,8 C 1,6 km/h (1 Bft) 99,19 %
24.11.2015 08:35 -2,8 C 95 % 1026,2 hPa 0,0 l/m 0,0 km/h (0 Bft) SO 135 5 min 0,000 mm 0,0 UV-I 125 W/m -3,5 C -2,8 C 0,0 km/h (0 Bft) 99,17 %
24.11.2015 08:40 -2,7 C 95 % 1026,2 hPa 0,0 l/m 0,0 km/h (0 Bft) SO 135 5 min 0,000 mm 0,0 UV-I 128 W/m -3,4 C -2,7 C 0,0 km/h (0 Bft) 98,17 %
24.11.2015 08:45 -2,6 C 95 % 1026,2 hPa 0,0 l/m 0,0 km/h (0 Bft) SO 135 5 min 0,000 mm 0,0 UV-I 125 W/m -3,3 C -2,6 C 0,0 km/h (0 Bft) 99,19 %
24.11.2015 08:50 -2,3 C 96 % 1026,2 hPa 0,0 l/m 0,0 km/h (0 Bft) SO 135 5 min 0,000 mm 0,0 UV-I 132 W/m -2,8 C -2,3 C 0,0 km/h (0 Bft) 100,00 %
24.11.2015 08:55 -2,0 C 96 % 1026,2 hPa 0,0 l/m 0,0 km/h (0 Bft) SO 135 5 min 0,000 mm 0,0 UV-I 157 W/m -2,6 C -2,0 C 1,6 km/h (1 Bft) 95,97 %
24.11.2015 09:00 -1,8 C 96 % 1026,2 hPa 0,0 l/m 1,3 km/h (1 Bft) SO 135 5 min 0,025 mm 0,0 UV-I 169 W/m -2,4 C -1,8 C 3,2 km/h (1 Bft) 97,50 %
24.11.2015 09:05 -1,7 C 95 % 1026,1 hPa 0,0 l/m 1,4 km/h (1 Bft) SO 135 5 min 0,000 mm 0,0 UV-I 177 W/m -2,4 C -1,7 C 3,2 km/h (1 Bft) 97,32 %
24.11.2015 09:10 -1,6 C 95 % 1026,2 hPa 0,0 l/m 2,1 km/h (1 Bft) O-NO 66 5 min 0,000 mm 0,0 UV-I 188 W/m -2,3 C -1,6 C 4,8 km/h (1 Bft) 97,52 %
24.11.2015 09:15 -1,4 C 95 % 1026,2 hPa 0,0 l/m 1,9 km/h (1 Bft) O-NO 66 5 min 0,000 mm 0,0 UV-I 196 W/m -2,1 C -1,4 C 3,2 km/h (1 Bft) 98,11 %
24.11.2015 09:20 -1,2 C 94 % 1026,1 hPa 0,0 l/m 1,1 km/h (1 Bft) O-NO 66 5 min 0,000 mm 0,0 UV-I 205 W/m -2,0 C -1,2 C 3,2 km/h (1 Bft) 99,22 %
24.11.2015 09:25 -1,2 C 94 % 1026,1 hPa 0,0 l/m 1,7 km/h (1 Bft) O-NO 66 5 min 0,000 mm 0,0 UV-I 215 W/m -2,0 C -1,2 C 3,2 km/h (1 Bft) 97,32 %
24.11.2015 09:30 -1,0 C 94 % 1026,1 hPa 0,0 l/m 2,5 km/h (1 Bft) O-NO 66 5 min 0,000 mm 0,0 UV-I 226 W/m -1,8 C -1,0 C 4,8 km/h (1 Bft) 99,12 %
24.11.2015 09:35 -0,9 C 93 % 1026,2 hPa 0,0 l/m 0,4 km/h (0 Bft) O-NO 66 5 min 0,000 mm 0,0 UV-I 236 W/m -1,9 C -0,9 C 1,6 km/h (1 Bft) 98,35 %
24.11.2015 09:40 -0,9 C 93 % 1026,1 hPa 0,0 l/m 0,4 km/h (0 Bft) O 98 5 min 0,000 mm 0,0 UV-I 244 W/m -1,9 C -0,9 C 1,6 km/h (1 Bft) 100,00 %
24.11.2015 09:45 -0,8 C 93 % 1026,1 hPa 0,0 l/m 1,4 km/h (1 Bft) O-SO 119 5 min 0,000 mm 0,2 UV-I 256 W/m -1,8 C -0,8 C 3,2 km/h (1 Bft) 99,15 %
24.11.2015 09:50 -0,7 C 93 % 1026,2 hPa 0,0 l/m 1,6 km/h (1 Bft) O-NO 67 5 min 0,000 mm 0,5 UV-I 265 W/m -1,7 C -0,7 C 3,2 km/h (1 Bft) 99,15 %
24.11.2015 09:55 -0,6 C 93 % 1026,1 hPa 0,0 l/m 1,9 km/h (1 Bft) N-NO 26 5 min 0,000 mm 0,5 UV-I 272 W/m -1,6 C -0,6 C 3,2 km/h (1 Bft) 100,00 %
24.11.2015 10:00 -0,6 C 93 % 1026,1 hPa 0,0 l/m 2,1 km/h (1 Bft) N-NO 26 5 min 0,077 mm 0,5 UV-I 281 W/m -1,6 C -0,6 C 4,8 km/h (1 Bft) 100,00 %
24.11.2015 10:05 -0,5 C 92 % 1026,1 hPa 0,0 l/m 2,7 km/h (1 Bft) NO 38 5 min 0,000 mm 0,5 UV-I 283 W/m -1,6 C -0,5 C 4,8 km/h (1 Bft) 96,69 %
24.11.2015 10:10 -0,3 C 91 % 1026,0 hPa 0,0 l/m 3,2 km/h (1 Bft) NO 40 5 min 0,000 mm 0,6 UV-I 286 W/m -1,6 C -0,3 C 4,8 km/h (1 Bft) 95,50 %
24.11.2015 10:15 -0,2 C 91 % 1026,0 hPa 0,0 l/m 3,0 km/h (1 Bft) NO 40 5 min 0,000 mm 0,6 UV-I 294 W/m -1,5 C -0,2 C 4,8 km/h (1 Bft) 98,26 %
24.11.2015 10:20 -0,1 C 90 % 1025,9 hPa 0,0 l/m 2,8 km/h (1 Bft) O-NO 69 5 min 0,000 mm 0,6 UV-I 299 W/m -1,5 C -0,1 C 4,8 km/h (1 Bft) 95,97 %
24.11.2015 10:25 0,0 C 89 % 1025,8 hPa 0,0 l/m 4,9 km/h (1 Bft) NO 51 5 min 0,000 mm 0,7 UV-I 306 W/m -1,6 C 0,0 C 6,4 km/h (2 Bft) 97,37 %
24.11.2015 10:30 0,1 C 88 % 1025,8 hPa 0,0 l/m 4,7 km/h (1 Bft) NO 46 5 min 0,000 mm 0,7 UV-I 313 W/m -1,6 C 0,1 C 6,4 km/h (2 Bft) 97,46 %
24.11.2015 10:35 0,2 C 90 % 1025,8 hPa 0,0 l/m 4,1 km/h (1 Bft) NO 41 5 min 0,000 mm 0,7 UV-I 318 W/m -1,2 C 0,2 C 6,4 km/h (2 Bft) 99,17 %
24.11.2015 10:40 0,2 C 89 % 1025,7 hPa 0,0 l/m 4,2 km/h (1 Bft) NO 40 5 min 0,000 mm 0,7 UV-I 322 W/m -1,4 C 0,2 C 4,8 km/h (1 Bft) 100,00 %
24.11.2015 10:45 0,2 C 89 % 1025,6 hPa 0,0 l/m 3,3 km/h (1 Bft) N-NO 32 5 min 0,000 mm 0,7 UV-I 325 W/m -1,4 C 0,2 C 6,4 km/h (2 Bft) 99,11 %
24.11.2015 10:50 0,4 C 89 % 1025,5 hPa 0,0 l/m 3,0 km/h (1 Bft) N-NO 25 5 min 0,000 mm 0,8 UV-I 329 W/m -1,2 C 0,4 C 6,4 km/h (2 Bft) 99,17 %
24.11.2015 10:55 0,4 C 88 % 1025,4 hPa 0,0 l/m 1,1 km/h (1 Bft) N-NO 19 5 min 0,000 mm 0,8 UV-I 332 W/m -1,3 C 0,4 C 4,8 km/h (1 Bft) 100,00 %
24.11.2015 11:00 0,4 C 87 % 1025,4 hPa 0,0 l/m 1,6 km/h (1 Bft) N-NO 20 5 min 0,101 mm 0,8 UV-I 338 W/m -1,5 C 0,4 C 4,8 km/h (1 Bft) 100,00 %
24.11.2015 11:05 0,4 C 86 % 1025,3 hPa 0,0 l/m 1,3 km/h (1 Bft) N-NO 19 5 min 0,000 mm 0,8 UV-I 340 W/m -1,7 C 0,4 C 4,8 km/h (1 Bft) 96,75 %
24.11.2015 11:10 0,6 C 85 % 1025,3 hPa 0,0 l/m 0,5 km/h (0 Bft) N-NO 18 5 min 0,000 mm 0,8 UV-I 344 W/m -1,6 C 0,6 C 3,2 km/h (1 Bft) 98,26 %
24.11.2015 11:15 0,8 C 84 % 1025,2 hPa 0,0 l/m 0,4 km/h (0 Bft) N-NO 17 5 min 0,000 mm 0,9 UV-I 347 W/m -1,6 C 0,8 C 3,2 km/h (1 Bft) 96,67 %
24.11.2015 11:20 0,9 C 85 % 1025,0 hPa 0,0 l/m 1,4 km/h (1 Bft) NO 40 5 min 0,000 mm 0,9 UV-I 350 W/m -1,3 C 0,9 C 3,2 km/h (1 Bft) 95,76 %
24.11.2015 11:25 1,3 C 82 % 1025,0 hPa 0,0 l/m 3,5 km/h (1 Bft) NO 46 5 min 0,000 mm 0,9 UV-I 353 W/m -1,4 C 1,3 C 6,4 km/h (2 Bft) 98,17 %
24.11.2015 11:30 1,5 C 82 % 1024,9 hPa 0,0 l/m 4,4 km/h (1 Bft) NO 36 5 min 0,000 mm 0,9 UV-I 356 W/m -1,2 C 1,5 C 8,0 km/h (2 Bft) 96,67 %
24.11.2015 11:35 1,7 C 82 % 1024,8 hPa 0,0 l/m 5,0 km/h (1 Bft) NO 44 5 min 0,000 mm 0,9 UV-I 357 W/m -1,0 C 1,7 C 8,0 km/h (2 Bft) 100,00 %
24.11.2015 11:40 1,6 C 83 % 1024,7 hPa 0,0 l/m 3,5 km/h (1 Bft) N-NO 17 5 min 0,000 mm 0,9 UV-I 359 W/m -1,0 C 1,6 C 6,4 km/h (2 Bft) 99,11 %
24.11.2015 11:45 1,6 C 82 % 1024,6 hPa 0,0 l/m 1,4 km/h (1 Bft) N 9 5 min 0,000 mm 0,9 UV-I 360 W/m -1,1 C 1,6 C 4,8 km/h (1 Bft) 99,19 %
24.11.2015 11:50 1,7 C 80 % 1024,5 hPa 0,0 l/m 2,5 km/h (1 Bft) NO 48 5 min 0,000 mm 0,9 UV-I 360 W/m -1,4 C 1,7 C 6,4 km/h (2 Bft) 99,11 %
24.11.2015 11:55 1,7 C 79 % 1024,4 hPa 0,0 l/m 3,9 km/h (1 Bft) NO 42 5 min 0,000 mm 0,9 UV-I 362 W/m -1,5 C 1,7 C 6,4 km/h (2 Bft) 100,00 %
24.11.2015 12:00 1,7 C 80 % 1024,4 hPa 0,0 l/m 3,1 km/h (1 Bft) N-NO 30 5 min 0,000 mm 0,9 UV-I 362 W/m -1,4 C 1,7 C 6,4 km/h (2 Bft) 99,15 %
24.11.2015 12:05 1,7 C 80 % 1024,3 hPa 0,0 l/m 2,5 km/h (1 Bft) NO 48 5 min 0,127 mm 0,9 UV-I 361 W/m -1,4 C 1,7 C 6,4 km/h (2 Bft) 99,22 %
24.11.2015 12:10 1,9 C 80 % 1024,2 hPa 0,0 l/m 4,1 km/h (1 Bft) O-NO 58 5 min 0,000 mm 0,9 UV-I 361 W/m -1,2 C 1,9 C 8,0 km/h (2 Bft) 99,07 %
24.11.2015 12:15 1,9 C 78 % 1024,2 hPa 0,0 l/m 4,2 km/h (1 Bft) O-NO 61 5 min 0,000 mm 0,9 UV-I 360 W/m -1,5 C 1,9 C 6,4 km/h (2 Bft) 97,52 %
24.11.2015 12:20 2,0 C 80 % 1024,1 hPa 0,0 l/m 3,2 km/h (1 Bft) NO 38 5 min 0,000 mm 0,9 UV-I 357 W/m -1,1 C 2,0 C 6,4 km/h (2 Bft) 95,87 %
24.11.2015 12:25 2,0 C 79 % 1024,1 hPa 0,0 l/m 1,1 km/h (1 Bft) NO 35 5 min 0,000 mm 0,9 UV-I 355 W/m -1,2 C 2,0 C 6,4 km/h (2 Bft) 97,37 %
24.11.2015 12:30 2,3 C 81 % 1023,9 hPa 0,0 l/m 3,9 km/h (1 Bft) N-NO 22 5 min 0,000 mm 0,9 UV-I 352 W/m -0,6 C 2,3 C 6,4 km/h (2 Bft) 98,21 %
24.11.2015 12:35 2,3 C 77 % 1023,8 hPa 0,0 l/m 4,0 km/h (1 Bft) O 82 5 min 0,000 mm 0,9 UV-I 352 W/m -1,3 C 2,3 C 6,4 km/h (2 Bft) 99,17 %
24.11.2015 12:40 2,3 C 76 % 1023,8 hPa 0,0 l/m 6,5 km/h (2 Bft) O-NO 69 5 min 0,000 mm 0,8 UV-I 348 W/m -1,5 C 2,2 C 12,9 km/h (3 Bft) 100,00 %
24.11.2015 12:45 2,2 C 76 % 1023,8 hPa 0,0 l/m 5,7 km/h (1 Bft) O 87 5 min 0,000 mm 0,8 UV-I 345 W/m -1,6 C 2,2 C 9,7 km/h (2 Bft) 100,00 %
24.11.2015 12:50 2,4 C 79 % 1023,7 hPa 0,0 l/m 6,3 km/h (2 Bft) NO 36 5 min 0,000 mm 0,8 UV-I 341 W/m -0,9 C 2,4 C 9,7 km/h (2 Bft) 100,00 %
24.11.2015 12:55 2,4 C 76 % 1023,7 hPa 0,0 l/m 4,9 km/h (1 Bft) O-NO 69 5 min 0,000 mm 0,8 UV-I 338 W/m -1,4 C 2,4 C 11,3 km/h (2 Bft) 100,00 %
24.11.2015 13:00 2,4 C 79 % 1023,6 hPa 0,0 l/m 4,1 km/h (1 Bft) NO 50 5 min 0,127 mm 0,8 UV-I 334 W/m -0,9 C 2,4 C 9,7 km/h (2 Bft) 100,00 %
24.11.2015 13:05 2,4 C 74 % 1023,6 hPa 0,0 l/m 6,0 km/h (2 Bft) NO 53 5 min 0,000 mm 0,7 UV-I 328 W/m -1,7 C 2,4 C 9,7 km/h (2 Bft) 99,17 %
24.11.2015 13:10 2,5 C 75 % 1023,5 hPa 0,0 l/m 4,5 km/h (1 Bft) NO 55 5 min 0,000 mm 0,7 UV-I 323 W/m -1,5 C 2,5 C 8,0 km/h (2 Bft) 99,13 %
24.11.2015 13:15 2,5 C 73 % 1023,5 hPa 0,0 l/m 5,7 km/h (1 Bft) NO 38 5 min 0,000 mm 0,7 UV-I 318 W/m -1,8 C 2,5 C 14,5 km/h (3 Bft) 100,00 %
24.11.2015 13:20 2,8 C 78 % 1023,4 hPa 0,0 l/m 4,3 km/h (1 Bft) NO 42 5 min 0,000 mm 0,7 UV-I 314 W/m -0,6 C 2,8 C 8,0 km/h (2 Bft) 99,11 %
24.11.2015 13:25 2,9 C 75 % 1023,3 hPa 0,0 l/m 5,0 km/h (1 Bft) N-NO 21 5 min 0,000 mm 0,7 UV-I 308 W/m -1,1 C 2,9 C 8,0 km/h (2 Bft) 97,39 %
24.11.2015 13:30 2,8 C 74 % 1023,2 hPa 0,0 l/m 6,9 km/h (2 Bft) O-NO 65 5 min 0,000 mm 0,6 UV-I 302 W/m -1,4 C 2,3 C 11,3 km/h (2 Bft) 96,03 %
24.11.2015 13:35 2,8 C 74 % 1023,2 hPa 0,0 l/m 5,7 km/h (1 Bft) NO 46 5 min 0,000 mm 0,6 UV-I 296 W/m -1,4 C 2,8 C 11,3 km/h (2 Bft) 96,61 %
24.11.2015 13:40 2,8 C 70 % 1023,1 hPa 0,0 l/m 7,6 km/h (2 Bft) NO 49 5 min 0,000 mm 0,6 UV-I 288 W/m -2,1 C 1,7 C 12,9 km/h (3 Bft) 97,39 %
24.11.2015 13:45 2,8 C 71 % 1022,9 hPa 0,0 l/m 7,5 km/h (2 Bft) O-NO 57 5 min 0,000 mm 0,6 UV-I 281 W/m -1,9 C 1,8 C 12,9 km/h (3 Bft) 98,29 %
24.11.2015 13:50 2,8 C 70 % 1022,9 hPa 0,0 l/m 8,1 km/h (2 Bft) O-NO 60 5 min 0,000 mm 0,5 UV-I 274 W/m -2,1 C 1,2 C 12,9 km/h (3 Bft) 98,31 %
24.11.2015 13:55 2,8 C 69 % 1022,9 hPa 0,0 l/m 8,0 km/h (2 Bft) O-NO 75 5 min 0,000 mm 0,5 UV-I 265 W/m -2,3 C 1,3 C 14,5 km/h (3 Bft) 99,06 %
24.11.2015 14:00 2,8 C 70 % 1022,8 hPa 0,0 l/m 8,2 km/h (2 Bft) O-NO 57 5 min 0,127 mm 0,5 UV-I 256 W/m -2,1 C 1,1 C 14,5 km/h (3 Bft) 99,17 %
24.11.2015 14:05 2,9 C 72 % 1022,8 hPa 0,0 l/m 5,9 km/h (2 Bft) NO 34 5 min 0,000 mm 0,2 UV-I 246 W/m -1,6 C 2,9 C 11,3 km/h (2 Bft) 98,31 %
24.11.2015 14:10 2,9 C 69 % 1022,7 hPa 0,0 l/m 9,3 km/h (2 Bft) NO 49 5 min 0,000 mm 0,0 UV-I 235 W/m -2,2 C 0,3 C 16,1 km/h (3 Bft) 97,44 %
24.11.2015 14:15 2,9 C 68 % 1022,7 hPa 0,0 l/m 8,0 km/h (2 Bft) NO 53 5 min 0,000 mm 0,0 UV-I 225 W/m -2,4 C 1,4 C 14,5 km/h (3 Bft) 99,13 %
24.11.2015 14:20 2,8 C 66 % 1022,6 hPa 0,0 l/m 8,8 km/h (2 Bft) O 81 5 min 0,000 mm 0,0 UV-I 214 W/m -2,9 C 0,6 C 16,1 km/h (3 Bft) 100,00 %
24.11.2015 14:25 2,8 C 67 % 1022,6 hPa 0,0 l/m 8,6 km/h (2 Bft) O 90 5 min 0,000 mm 0,0 UV-I 203 W/m -2,7 C 0,8 C 14,5 km/h (3 Bft) 97,44 %
24.11.2015 14:30 2,8 C 68 % 1022,6 hPa 0,0 l/m 6,7 km/h (2 Bft) O 80 5 min 0,000 mm 0,0 UV-I 191 W/m -2,5 C 2,5 C 12,9 km/h (3 Bft) 99,19 %
24.11.2015 14:35 2,8 C 70 % 1022,5 hPa 0,0 l/m 6,4 km/h (2 Bft) NO 55 5 min 0,000 mm 0,0 UV-I 180 W/m -2,1 C 2,8 C 14,5 km/h (3 Bft) 99,15 %
24.11.2015 14:40 2,8 C 67 % 1022,3 hPa 0,0 l/m 11,0 km/h (2 Bft) O-NO 61 5 min 0,000 mm 0,0 UV-I 169 W/m -2,7 C -1,1 C 16,1 km/h (3 Bft) 100,00 %
24.11.2015 14:45 2,9 C 67 % 1022,2 hPa 0,0 l/m 7,7 km/h (2 Bft) O-SO 109 5 min 0,000 mm 0,0 UV-I 153 W/m -2,6 C 1,7 C 12,9 km/h (3 Bft) 97,32 %
24.11.2015 14:50 2,8 C 70 % 1022,1 hPa 0,0 l/m 5,2 km/h (1 Bft) O-NO 67 5 min 0,000 mm 0,0 UV-I 143 W/m -2,1 C 2,8 C 9,7 km/h (2 Bft) 97,50 %
24.11.2015 14:55 2,8 C 70 % 1022,1 hPa 0,0 l/m 6,9 km/h (2 Bft) O-NO 76 5 min 0,000 mm 0,0 UV-I 136 W/m -2,1 C 2,3 C 12,9 km/h (3 Bft) 97,58 %
24.11.2015 15:00 2,7 C 70 % 1022,0 hPa 0,0 l/m 7,1 km/h (2 Bft) O-NO 70 5 min 0,076 mm 0,0 UV-I 114 W/m -2,2 C 2,0 C 12,9 km/h (3 Bft) 97,39 %
24.11.2015 15:05 2,7 C 71 % 1022,0 hPa 0,0 l/m 6,3 km/h (2 Bft) O-NO 78 5 min 0,000 mm 0,0 UV-I 103 W/m -2,0 C 2,7 C 8,0 km/h (2 Bft) 98,15 %
24.11.2015 15:10 2,6 C 71 % 1022,0 hPa 0,0 l/m 7,0 km/h (2 Bft) O-NO 64 5 min 0,000 mm 0,0 UV-I 93 W/m -2,1 C 2,0 C 12,9 km/h (3 Bft) 98,35 %
24.11.2015 15:15 2,6 C 71 % 1021,9 hPa 0,0 l/m 6,4 km/h (2 Bft) NO 45 5 min 0,000 mm 0,0 UV-I 82 W/m -2,1 C 2,6 C 9,7 km/h (2 Bft) 97,37 %
24.11.2015 15:20 2,4 C 74 % 1021,8 hPa 0,0 l/m 4,8 km/h (1 Bft) O-NO 67 5 min 0,000 mm 0,0 UV-I 71 W/m -1,7 C 2,4 C 8,0 km/h (2 Bft) 97,37 %
24.11.2015 15:25 2,4 C 73 % 1021,8 hPa 0,0 l/m 6,4 km/h (2 Bft) O-NO 67 5 min 0,000 mm 0,0 UV-I 61 W/m -1,9 C 2,4 C 8,0 km/h (2 Bft) 97,37 %
24.11.2015 15:30 2,3 C 73 % 1021,8 hPa 0,0 l/m 4,8 km/h (1 Bft) O-NO 67 0 min 0,000 mm 0,0 UV-I 52 W/m -2,0 C 2,3 C 8,0 km/h (2 Bft) 98,25 %
24.11.2015 15:35 2,2 C 74 % 1021,8 hPa 0,0 l/m 3,2 km/h (1 Bft) O-NO 67 0 min 0,000 mm 0,0 UV-I 42 W/m -1,9 C 2,2 C 6,4 km/h (2 Bft) 97,37 %
24.11.2015 15:45 2,1 C 75 % 1021,6 hPa 0,0 l/m 2,9 km/h (1 Bft) NO 45 0 min 0,000 mm 0,0 UV-I 25 W/m -1,9 C 2,1 C 4,8 km/h (1 Bft) 99,15 %
24.11.2015 15:50 1,9 C 76 % 1021,6 hPa 0,0 l/m 2,1 km/h (1 Bft) NO 45 0 min 0,000 mm 0,0 UV-I 20 W/m -1,9 C 1,9 C 3,2 km/h (1 Bft) 99,08 %
24.11.2015 15:55 1,8 C 76 % 1021,6 hPa 0,0 l/m 2,3 km/h (1 Bft) NO 56 0 min 0,000 mm 0,0 UV-I 16 W/m -2,0 C 1,8 C 4,8 km/h (1 Bft) 99,22 %
24.11.2015 16:00 1,6 C 76 % 1021,6 hPa 0,0 l/m 2,9 km/h (1 Bft) O-NO 67 0 min 0,000 mm 0,0 UV-I 14 W/m -2,2 C 1,6 C 4,8 km/h (1 Bft) 97,25 %
24.11.2015 16:05 1,5 C 76 % 1021,4 hPa 0,0 l/m 2,5 km/h (1 Bft) O-NO 67 5 min 0,026 mm 0,0 UV-I 12 W/m -2,3 C 1,5 C 4,8 km/h (1 Bft) 99,15 %
24.11.2015 16:10 1,4 C 75 % 1021,5 hPa 0,0 l/m 2,8 km/h (1 Bft) O-NO 67 0 min 0,000 mm 0,0 UV-I 10 W/m -2,5 C 1,4 C 4,8 km/h (1 Bft) 99,19 %
24.11.2015 16:15 1,3 C 76 % 1021,4 hPa 0,0 l/m 2,4 km/h (1 Bft) O-NO 67 0 min 0,000 mm 0,0 UV-I 8 W/m -2,5 C 1,3 C 3,2 km/h (1 Bft) 99,13 %
24.11.2015 16:20 1,2 C 77 % 1021,3 hPa 0,0 l/m 2,0 km/h (1 Bft) O-NO 67 0 min 0,000 mm 0,0 UV-I 5 W/m -2,4 C 1,2 C 3,2 km/h (1 Bft) 100,00 %
24.11.2015 16:25 0,9 C 78 % 1021,3 hPa 0,0 l/m 2,2 km/h (1 Bft) O-NO 67 0 min 0,000 mm 0,0 UV-I 3 W/m -2,5 C 0,9 C 3,2 km/h (1 Bft) 98,31 %
24.11.2015 16:30 0,6 C 79 % 1021,3 hPa 0,0 l/m 3,0 km/h (1 Bft) O-NO 67 0 min 0,000 mm 0,0 UV-I 0 W/m -2,6 C 0,6 C 4,8 km/h (1 Bft) 95,41 %
24.11.2015 16:35 0,7 C 79 % 1021,3 hPa 0,0 l/m 2,5 km/h (1 Bft) O-NO 67 0 min 0,000 mm 0,0 UV-I 0 W/m -2,5 C 0,7 C 4,8 km/h (1 Bft) 98,33 %
24.11.2015 16:40 0,6 C 78 % 1021,2 hPa 0,0 l/m 1,7 km/h (1 Bft) O-NO 67 0 min 0,000 mm 0,0 UV-I 0 W/m -2,8 C 0,6 C 3,2 km/h (1 Bft) 97,32 %
24.11.2015 16:45 0,4 C 79 % 1021,2 hPa 0,0 l/m 1,4 km/h (1 Bft) O-NO 67 0 min 0,000 mm 0,0 UV-I 0 W/m -2,8 C 0,4 C 3,2 km/h (1 Bft) 95,83 %
24.11.2015 16:50 0,1 C 81 % 1021,1 hPa 0,0 l/m 0,0 km/h (0 Bft) O-NO 67 0 min 0,000 mm 0,0 UV-I 0 W/m -2,8 C 0,1 C 0,0 km/h (0 Bft) 96,61 %
24.11.2015 16:55 -0,1 C 81 % 1021,1 hPa 0,0 l/m 0,2 km/h (0 Bft) O-NO 67 0 min 0,000 mm 0,0 UV-I 0 W/m -3,0 C -0,1 C 1,6 km/h (1 Bft) 97,52 %
24.11.2015 17:00 -0,4 C 83 % 1021,0 hPa 0,0 l/m 0,0 km/h (0 Bft) O-NO 67 0 min 0,000 mm 0,0 UV-I 0 W/m -2,9 C -0,4 C 0,0 km/h (0 Bft) 97,22 %
24.11.2015 17:05 -0,7 C 85 % 1021,0 hPa 0,0 l/m 0,6 km/h (0 Bft) O-NO 67 0 min 0,000 mm 0,0 UV-I 0 W/m -2,9 C -0,7 C 1,6 km/h (1 Bft) 98,35 %
24.11.2015 17:10 -0,8 C 85 % 1020,9 hPa 0,0 l/m 2,1 km/h (1 Bft) O-NO 67 0 min 0,000 mm 0,0 UV-I 0 W/m -3,0 C -0,8 C 3,2 km/h (1 Bft) 97,46 %
24.11.2015 17:15 -0,9 C 85 % 1020,9 hPa 0,0 l/m 2,5 km/h (1 Bft) O-NO 67 0 min 0,000 mm 0,0 UV-I 0 W/m -3,1 C -0,9 C 3,2 km/h (1 Bft) 99,15 %
24.11.2015 17:20 -1,0 C 85 % 1020,9 hPa 0,0 l/m 2,0 km/h (1 Bft) O-NO 67 0 min 0,000 mm 0,0 UV-I 0 W/m -3,2 C -1,0 C 3,2 km/h (1 Bft) 99,17 %
24.11.2015 17:25 -1,1 C 86 % 1020,8 hPa 0,0 l/m 1,9 km/h (1 Bft) O-NO 67 0 min 0,000 mm 0,0 UV-I 0 W/m -3,1 C -1,1 C 3,2 km/h (1 Bft) 100,00 %
24.11.2015 17:30 -1,1 C 87 % 1020,8 hPa 0,0 l/m 2,1 km/h (1 Bft) O-NO 67 0 min 0,000 mm 0,0 UV-I 0 W/m -3,0 C -1,1 C 3,2 km/h (1 Bft) 99,08 %
24.11.2015 17:35 -1,2 C 88 % 1020,8 hPa 0,0 l/m 0,2 km/h (0 Bft) O-NO 67 0 min 0,000 mm 0,0 UV-I 0 W/m -2,9 C -1,2 C 1,6 km/h (1 Bft) 99,21 %
24.11.2015 17:40 -1,3 C 88 % 1020,7 hPa 0,0 l/m 0,2 km/h (0 Bft) O-NO 67 0 min 0,000 mm 0,0 UV-I 0 W/m -3,0 C -1,3 C 3,2 km/h (1 Bft) 100,00 %
24.11.2015 17:45 -1,2 C 88 % 1020,7 hPa 0,0 l/m 2,0 km/h (1 Bft) O-NO 67 0 min 0,000 mm 0,0 UV-I 0 W/m -2,9 C -1,2 C 3,2 km/h (1 Bft) 98,39 %
24.11.2015 17:50 -1,3 C 89 % 1020,6 hPa 0,0 l/m 2,9 km/h (1 Bft) O-NO 67 0 min 0,000 mm 0,0 UV-I 0 W/m -2,9 C -1,3 C 4,8 km/h (1 Bft) 99,03 %
24.11.2015 17:55 -1,3 C 87 % 1020,6 hPa 0,0 l/m 2,4 km/h (1 Bft) O-NO 67 0 min 0,000 mm 0,0 UV-I 0 W/m -3,2 C -1,3 C 4,8 km/h (1 Bft) 100,00 %
24.11.2015 18:00 -1,3 C 87 % 1020,6 hPa 0,0 l/m 0,7 km/h (0 Bft) O-NO 67 0 min 0,000 mm 0,0 UV-I 0 W/m -3,2 C -1,3 C 3,2 km/h (1 Bft) 100,00 %
24.11.2015 18:05 -1,2 C 87 % 1020,4 hPa 0,0 l/m 0,0 km/h (0 Bft) O-NO 67 0 min 0,000 mm 0,0 UV-I 0 W/m -3,1 C -1,2 C 0,0 km/h (0 Bft) 100,00 %
24.11.2015 18:10 -1,4 C 89 % 1020,4 hPa 0,0 l/m 2,1 km/h (1 Bft) O-NO 76 0 min 0,000 mm 0,0 UV-I 0 W/m -3,0 C -1,4 C 4,8 km/h (1 Bft) 99,15 %
24.11.2015 18:15 -1,4 C 88 % 1020,4 hPa 0,0 l/m 2,8 km/h (1 Bft) O 83 0 min 0,000 mm 0,0 UV-I 0 W/m -3,1 C -1,4 C 4,8 km/h (1 Bft) 99,11 %
24.11.2015 18:20 -1,3 C 88 % 1020,4 hPa 0,0 l/m 1,7 km/h (1 Bft) O 83 0 min 0,000 mm 0,0 UV-I 0 W/m -3,0 C -1,3 C 4,8 km/h (1 Bft) 100,00 %
24.11.2015 18:25 -1,5 C 89 % 1020,4 hPa 0,0 l/m 0,1 km/h (0 Bft) O 83 0 min 0,000 mm 0,0 UV-I 0 W/m -3,1 C -1,5 C 1,6 km/h (1 Bft) 100,00 %
24.11.2015 18:30 -1,7 C 89 % 1020,3 hPa 0,0 l/m 1,0 km/h (0 Bft) O 83 0 min 0,000 mm 0,0 UV-I 0 W/m -3,3 C -1,7 C 3,2 km/h (1 Bft) 99,13 %
24.11.2015 18:35 -1,6 C 88 % 1020,4 hPa 0,0 l/m 2,2 km/h (1 Bft) O 83 0 min 0,000 mm 0,0 UV-I 0 W/m -3,3 C -1,6 C 4,8 km/h (1 Bft) 99,21 %
24.11.2015 18:40 -1,6 C 86 % 1020,3 hPa 0,0 l/m 2,6 km/h (1 Bft) O 83 0 min 0,000 mm 0,0 UV-I 0 W/m -3,6 C -1,6 C 4,8 km/h (1 Bft) 100,00 %
24.11.2015 18:45 -1,6 C 86 % 1020,3 hPa 0,0 l/m 2,0 km/h (1 Bft) O 83 0 min 0,000 mm 0,0 UV-I 0 W/m -3,6 C -1,6 C 3,2 km/h (1 Bft) 98,37 %
24.11.2015 18:50 -1,8 C 87 % 1020,3 hPa 0,0 l/m 1,2 km/h (1 Bft) O 83 0 min 0,000 mm 0,0 UV-I 0 W/m -3,7 C -1,8 C 3,2 km/h (1 Bft) 97,46 %
24.11.2015 18:55 -1,8 C 87 % 1020,2 hPa 0,0 l/m 1,1 km/h (1 Bft) O 83 0 min 0,000 mm 0,0 UV-I 0 W/m -3,7 C -1,8 C 3,2 km/h (1 Bft) 96,33 %
24.11.2015 19:00 -1,8 C 88 % 1020,1 hPa 0,0 l/m 2,8 km/h (1 Bft) O-NO 69 0 min 0,000 mm 0,0 UV-I 0 W/m -3,5 C -1,8 C 4,8 km/h (1 Bft) 97,44 %
24.11.2015 19:05 -1,9 C 87 % 1020,0 hPa 0,0 l/m 2,8 km/h (1 Bft) O 86 0 min 0,000 mm 0,0 UV-I 0 W/m -3,8 C -1,9 C 6,4 km/h (2 Bft) 96,61 %
24.11.2015 19:10 -1,9 C 88 % 1020,0 hPa 0,0 l/m 1,5 km/h (1 Bft) O 99 0 min 0,000 mm 0,0 UV-I 0 W/m -3,6 C -1,9 C 3,2 km/h (1 Bft) 97,52 %
24.11.2015 19:15 -2,1 C 89 % 1019,9 hPa 0,0 l/m 0,3 km/h (0 Bft) O 99 0 min 0,000 mm 0,0 UV-I 0 W/m -3,7 C -2,1 C 1,6 km/h (1 Bft) 96,49 %
24.11.2015 19:20 -2,3 C 89 % 1019,8 hPa 0,0 l/m 0,1 km/h (0 Bft) O 99 0 min 0,000 mm 0,0 UV-I 0 W/m -3,9 C -2,3 C 1,6 km/h (1 Bft) 95,87 %
24.11.2015 19:25 -2,3 C 88 % 1019,8 hPa 0,0 l/m 0,5 km/h (0 Bft) O 99 0 min 0,000 mm 0,0 UV-I 0 W/m -4,0 C -2,3 C 1,6 km/h (1 Bft) 98,33 %
24.11.2015 19:30 -2,4 C 89 % 1019,8 hPa 0,0 l/m 0,8 km/h (0 Bft) O-SO 117 0 min 0,000 mm 0,0 UV-I 0 W/m -4,0 C -2,4 C 3,2 km/h (1 Bft) 97,32 %
24.11.2015 19:35 -2,4 C 89 % 1019,7 hPa 0,0 l/m 3,1 km/h (1 Bft) S 188 0 min 0,000 mm 0,0 UV-I 0 W/m -4,0 C -2,4 C 6,4 km/h (2 Bft) 97,58 %
24.11.2015 19:40 -2,4 C 90 % 1019,7 hPa 0,0 l/m 3,1 km/h (1 Bft) S 188 0 min 0,000 mm 0,0 UV-I 0 W/m -3,8 C -2,4 C 4,8 km/h (1 Bft) 96,19 %
24.11.2015 19:45 -2,4 C 90 % 1019,6 hPa 0,0 l/m 2,2 km/h (1 Bft) S 188 0 min 0,000 mm 0,0 UV-I 0 W/m -3,8 C -2,4 C 3,2 km/h (1 Bft) 96,85 %
24.11.2015 19:50 -2,3 C 90 % 1019,6 hPa 0,0 l/m 1,5 km/h (1 Bft) S 188 0 min 0,000 mm 0,0 UV-I 0 W/m -3,7 C -2,3 C 1,6 km/h (1 Bft) 97,32 %
24.11.2015 19:55 -2,5 C 89 % 1019,5 hPa 0,0 l/m 2,2 km/h (1 Bft) S 188 0 min 0,000 mm 0,0 UV-I 0 W/m -4,1 C -2,5 C 3,2 km/h (1 Bft) 98,29 %
24.11.2015 20:00 -2,7 C 91 % 1019,5 hPa 0,0 l/m 3,1 km/h (1 Bft) S 188 0 min 0,000 mm 0,0 UV-I 0 W/m -4,0 C -2,7 C 4,8 km/h (1 Bft) 99,19 %
24.11.2015 20:05 -2,8 C 90 % 1019,4 hPa 0,0 l/m 2,4 km/h (1 Bft) S 188 0 min 0,000 mm 0,0 UV-I 0 W/m -4,2 C -2,8 C 3,2 km/h (1 Bft) 98,20 %
24.11.2015 20:10 -2,6 C 91 % 1019,5 hPa 0,0 l/m 2,2 km/h (1 Bft) S 188 0 min 0,000 mm 0,0 UV-I 0 W/m -3,9 C -2,6 C 3,2 km/h (1 Bft) 98,35 %
24.11.2015 20:15 -2,5 C 91 % 1019,4 hPa 0,0 l/m 1,6 km/h (1 Bft) S 188 0 min 0,000 mm 0,0 UV-I 0 W/m -3,8 C -2,5 C 3,2 km/h (1 Bft) 99,15 %
24.11.2015 20:20 -2,4 C 92 % 1019,4 hPa 0,0 l/m 1,3 km/h (1 Bft) S 188 0 min 0,000 mm 0,0 UV-I 0 W/m -3,5 C -2,4 C 3,2 km/h (1 Bft) 100,00 %
24.11.2015 20:25 -2,4 C 92 % 1019,4 hPa 0,0 l/m 1,3 km/h (1 Bft) S 188 0 min 0,000 mm 0,0 UV-I 0 W/m -3,5 C -2,4 C 3,2 km/h (1 Bft) 100,00 %
24.11.2015 20:30 -2,4 C 91 % 1019,4 hPa 0,0 l/m 1,1 km/h (1 Bft) S 188 0 min 0,000 mm 0,0 UV-I 0 W/m -3,7 C -2,4 C 3,2 km/h (1 Bft) 96,58 %
24.11.2015 20:35 -2,4 C 91 % 1019,3 hPa 0,0 l/m 0,4 km/h (0 Bft) S 188 0 min 0,000 mm 0,0 UV-I 0 W/m -3,7 C -2,4 C 1,6 km/h (1 Bft) 100,00 %
24.11.2015 20:40 -2,6 C 91 % 1019,3 hPa 0,0 l/m 0,5 km/h (0 Bft) S 188 0 min 0,000 mm 0,0 UV-I 0 W/m -3,9 C -2,6 C 1,6 km/h (1 Bft) 100,00 %
24.11.2015 20:45 -2,5 C 91 % 1019,3 hPa 0,0 l/m 0,6 km/h (0 Bft) S 188 0 min 0,000 mm 0,0 UV-I 0 W/m -3,8 C -2,5 C 1,6 km/h (1 Bft) 100,00 %
24.11.2015 20:50 -2,7 C 91 % 1019,2 hPa 0,0 l/m 1,2 km/h (1 Bft) S 188 0 min 0,000 mm 0,0 UV-I 0 W/m -4,0 C -2,7 C 3,2 km/h (1 Bft) 100,00 %
24.11.2015 20:55 -2,8 C 92 % 1019,2 hPa 0,0 l/m 0,9 km/h (0 Bft) S 188 0 min 0,000 mm 0,0 UV-I 0 W/m -3,9 C -2,8 C 1,6 km/h (1 Bft) 99,15 %
24.11.2015 21:00 -2,7 C 92 % 1019,2 hPa 0,0 l/m 1,2 km/h (1 Bft) S 188 0 min 0,000 mm 0,0 UV-I 0 W/m -3,8 C -2,7 C 1,6 km/h (1 Bft) 99,12 %
24.11.2015 21:05 -2,6 C 92 % 1019,1 hPa 0,0 l/m 1,1 km/h (1 Bft) S 188 0 min 0,000 mm 0,0 UV-I 0 W/m -3,7 C -2,6 C 3,2 km/h (1 Bft) 97,32 %
24.11.2015 21:10 -2,4 C 91 % 1019,1 hPa 0,0 l/m 1,1 km/h (1 Bft) S 188 0 min 0,000 mm 0,0 UV-I 0 W/m -3,7 C -2,4 C 1,6 km/h (1 Bft) 99,19 %
24.11.2015 21:15 -2,3 C 91 % 1018,9 hPa 0,0 l/m 0,3 km/h (0 Bft) S 188 0 min 0,000 mm 0,0 UV-I 0 W/m -3,6 C -2,3 C 1,6 km/h (1 Bft) 99,17 %
24.11.2015 21:20 -2,3 C 91 % 1018,9 hPa 0,0 l/m 0,8 km/h (0 Bft) S 188 0 min 0,000 mm 0,0 UV-I 0 W/m -3,6 C -2,3 C 3,2 km/h (1 Bft) 98,21 %
24.11.2015 21:25 -2,4 C 91 % 1019,0 hPa 0,0 l/m 1,7 km/h (1 Bft) S 188 0 min 0,000 mm 0,0 UV-I 0 W/m -3,7 C -2,4 C 3,2 km/h (1 Bft) 99,13 %
24.11.2015 21:30 -2,6 C 91 % 1018,9 hPa 0,0 l/m 1,4 km/h (1 Bft) S 188 0 min 0,000 mm 0,0 UV-I 0 W/m -3,9 C -2,6 C 3,2 km/h (1 Bft) 97,56 %
24.11.2015 21:35 -2,4 C 92 % 1018,9 hPa 0,0 l/m 0,5 km/h (0 Bft) S 188 0 min 0,000 mm 0,0 UV-I 0 W/m -3,5 C -2,4 C 3,2 km/h (1 Bft) 94,78 %
24.11.2015 21:40 -2,3 C 92 % 1018,8 hPa 0,0 l/m 0,2 km/h (0 Bft) S 188 0 min 0,000 mm 0,0 UV-I 0 W/m -3,4 C -2,3 C 1,6 km/h (1 Bft) 96,67 %
24.11.2015 21:45 -2,5 C 92 % 1018,8 hPa 0,0 l/m 0,1 km/h (0 Bft) S 188 0 min 0,000 mm 0,0 UV-I 0 W/m -3,6 C -2,5 C 1,6 km/h (1 Bft) 96,33 %
24.11.2015 21:50 -2,6 C 92 % 1018,8 hPa 0,0 l/m 0,3 km/h (0 Bft) S 188 0 min 0,000 mm 0,0 UV-I 0 W/m -3,7 C -2,6 C 1,6 km/h (1 Bft) 96,69 %
24.11.2015 21:55 -2,6 C 91 % 1018,8 hPa 0,0 l/m 1,2 km/h (1 Bft) S 186 0 min 0,000 mm 0,0 UV-I 0 W/m -3,9 C -2,6 C 3,2 km/h (1 Bft) 95,50 %
24.11.2015 22:00 -2,7 C 91 % 1018,7 hPa 0,0 l/m 1,6 km/h (1 Bft) S 186 0 min 0,000 mm 0,0 UV-I 0 W/m -4,0 C -2,7 C 3,2 km/h (1 Bft) 96,69 %
24.11.2015 22:05 -2,8 C 91 % 1018,7 hPa 0,0 l/m 2,5 km/h (1 Bft) S 182 0 min 0,000 mm 0,0 UV-I 0 W/m -4,1 C -2,8 C 4,8 km/h (1 Bft) 99,19 %
24.11.2015 22:10 -2,8 C 91 % 1018,7 hPa 0,0 l/m 3,3 km/h (1 Bft) S 182 0 min 0,000 mm 0,0 UV-I 0 W/m -4,1 C -2,8 C 4,8 km/h (1 Bft) 100,00 %
24.11.2015 22:15 -2,7 C 91 % 1018,6 hPa 0,0 l/m 2,6 km/h (1 Bft) S 182 0 min 0,000 mm 0,0 UV-I 0 W/m -4,0 C -2,7 C 4,8 km/h (1 Bft) 97,46 %
24.11.2015 22:20 -2,7 C 91 % 1018,5 hPa 0,0 l/m 1,1 km/h (1 Bft) S 182 0 min 0,000 mm 0,0 UV-I 0 W/m -4,0 C -2,7 C 3,2 km/h (1 Bft) 97,32 %
24.11.2015 22:25 -2,5 C 91 % 1018,5 hPa 0,0 l/m 0,0 km/h (0 Bft) S 182 0 min 0,000 mm 0,0 UV-I 0 W/m -3,8 C -2,5 C 1,6 km/h (1 Bft) 99,17 %
24.11.2015 22:30 -2,6 C 89 % 1018,4 hPa 0,0 l/m 1,4 km/h (1 Bft) S 182 0 min 0,000 mm 0,0 UV-I 0 W/m -4,2 C -2,6 C 3,2 km/h (1 Bft) 98,35 %
24.11.2015 22:35 -2,8 C 90 % 1018,3 hPa 0,0 l/m 1,8 km/h (1 Bft) S 182 0 min 0,000 mm 0,0 UV-I 0 W/m -4,2 C -2,8 C 3,2 km/h (1 Bft) 100,00 %
24.11.2015 22:40 -3,3 C 90 % 1018,2 hPa 0,0 l/m 0,7 km/h (0 Bft) S 182 0 min 0,000 mm 0,0 UV-I 0 W/m -4,7 C -3,3 C 1,6 km/h (1 Bft) 99,13 %
24.11.2015 22:45 -3,4 C 92 % 1018,2 hPa 0,0 l/m 0,9 km/h (0 Bft) S 182 0 min 0,000 mm 0,0 UV-I 0 W/m -4,5 C -3,4 C 1,6 km/h (1 Bft) 100,00 %
24.11.2015 22:50 -3,5 C 92 % 1018,1 hPa 0,0 l/m 0,6 km/h (0 Bft) S 182 0 min 0,000 mm 0,0 UV-I 0 W/m -4,6 C -3,5 C 3,2 km/h (1 Bft) 99,15 %
24.11.2015 22:55 -3,6 C 92 % 1018,0 hPa 0,0 l/m 1,6 km/h (1 Bft) S 182 0 min 0,000 mm 0,0 UV-I 0 W/m -4,7 C -3,6 C 3,2 km/h (1 Bft) 98,21 %
24.11.2015 23:00 -3,7 C 92 % 1018,0 hPa 0,0 l/m 1,1 km/h (1 Bft) S 182 0 min 0,000 mm 0,0 UV-I 0 W/m -4,8 C -3,7 C 3,2 km/h (1 Bft) 96,80 %
24.11.2015 23:05 -3,4 C 92 % 1018,0 hPa 0,0 l/m 0,3 km/h (0 Bft) S 182 0 min 0,000 mm 0,0 UV-I 0 W/m -4,5 C -3,4 C 1,6 km/h (1 Bft) 98,25 %
24.11.2015 23:10 -3,4 C 91 % 1017,9 hPa 0,0 l/m 0,1 km/h (0 Bft) S 182 0 min 0,000 mm 0,0 UV-I 0 W/m -4,7 C -3,4 C 1,6 km/h (1 Bft) 100,00 %
24.11.2015 23:15 -3,6 C 92 % 1017,9 hPa 0,0 l/m 0,1 km/h (0 Bft) S 182 0 min 0,000 mm 0,0 UV-I 0 W/m -4,7 C -3,6 C 1,6 km/h (1 Bft) 99,17 %
24.11.2015 23:20 -3,7 C 92 % 1017,8 hPa 0,0 l/m 0,0 km/h (0 Bft) S 182 0 min 0,000 mm 0,0 UV-I 0 W/m -4,8 C -3,7 C 1,6 km/h (1 Bft) 98,29 %
24.11.2015 23:25 -3,7 C 92 % 1017,8 hPa 0,0 l/m 0,0 km/h (0 Bft) S 182 0 min 0,000 mm 0,0 UV-I 0 W/m -4,8 C -3,7 C 0,0 km/h (0 Bft) 99,13 %
24.11.2015 23:30 -3,7 C 93 % 1017,7 hPa 0,0 l/m 0,4 km/h (0 Bft) S 182 0 min 0,000 mm 0,0 UV-I 0 W/m -4,7 C -3,7 C 1,6 km/h (1 Bft) 95,12 %
24.11.2015 23:35 -3,8 C 93 % 1017,6 hPa 0,0 l/m 1,1 km/h (1 Bft) S 182 0 min 0,000 mm 0,0 UV-I 0 W/m -4,8 C -3,8 C 3,2 km/h (1 Bft) 95,54 %
24.11.2015 23:40 -3,6 C 93 % 1017,6 hPa 0,0 l/m 1,4 km/h (1 Bft) S 182 0 min 0,000 mm 0,0 UV-I 0 W/m -4,6 C -3,6 C 3,2 km/h (1 Bft) 96,77 %
24.11.2015 23:45 -3,6 C 93 % 1017,5 hPa 0,0 l/m 1,6 km/h (1 Bft) S 182 0 min 0,000 mm 0,0 UV-I 0 W/m -4,6 C -3,6 C 3,2 km/h (1 Bft) 98,00 %
24.11.2015 23:50 -3,4 C 93 % 1017,5 hPa 0,0 l/m 2,0 km/h (1 Bft) SO 137 0 min 0,000 mm 0,0 UV-I 0 W/m -4,4 C -3,4 C 3,2 km/h (1 Bft) 96,90 %
24.11.2015 23:55 -3,3 C 93 % 1017,3 hPa 0,0 l/m 1,9 km/h (1 Bft) SO 136 0 min 0,000 mm 0,0 UV-I 0 W/m -4,3 C -3,3 C 3,2 km/h (1 Bft) 97,46 %
_ Min-Zeit 23:35 14:20 23:55 - 01:50 - - - - - - 23:00 23:35 03:30 21:35
Minimum _ -3,8 C 66 % 1017,3 hPa - 0,0 km/h (0 Bft) - - - - - - -4,8 C -3,8 C 0,0 km/h (0 Bft) 94,78 %
_ Max-Zeit 13:25 04:10 00:15 00:00 14:40 - - 07:35 12:05 11:15 11:55 12:30 13:25 14:10 00:10
Maximum _ 2,9 C 96 % 1026,6 hPa 0,0 l/m 11,0 km/h
O-NO (2 Bft)
- - 5 min 0,127 mm 0,9 UV-I 362 W/m -0,6 C 2,9 C 16,1 km/h
NO (3 Bft)
100,00 %
Durchschnitt _ -1,1 C 88 % 1023,3 hPa #0,0 l/m 2,1 km/h (1 Bft) O-NO - #7:15 h #0,686 mm 0,7 UV-I 208 W/m -2,8 C -1,1 C 4,2 km/h (1 Bft) 98,38 %